Regional Weather Roundup
Issued by NWS

Home | Current Version | Previous Version | Text Only | Print | Product List | Glossary Off
Versions: 1 2 3 4 5 6 7 8 9 10 11 12 13 14 15 16 17 18 19 20 21 22 23 24 25 26 27 28 29 30 31 32 33 34 35 36 37 38 39 40 41 42 43 44 45 46 47 48 49 50

000
ASUS43 KLMK 220102
RWRKY
KENTUCKY REGIONAL WEATHER ROUNDUP
NATIONAL WEATHER SERVICE LOUISVILLE KY
900 PM EDT SUN MAY 21 2017

NOTE "FAIR" INDICATES FEW OR NO CLOUDS BELOW 12,000 FEET
WITH NO SIGNIFICANT WEATHER AND/OR OBSTRUCTIONS TO VISIBILITY.

KYZ001>023-026-027-061>063-070>075-220200-
WESTERN AND SOUTH CENTRAL KENTUCKY

CITY           SKY/WX    TMP DP  RH WIND       PRES   REMARKS
PADUCAH        CLEAR     70  54  56 W5        30.05R
HENDERSON      PTCLDY    70  54  56 NW9       30.05R
OWENSBORO      CLEAR     71  55  56 W8        30.04R
HOPKINSVILLE   CLEAR     72  50  46 W10       30.05R
BOWLING GREEN  CLEAR     74  63  68 W3        30.03R
GLASGOW        NOT AVBL
$$

KYZ024-025-028>034-038-045-046-053-220200-
NORTH CENTRAL KENTUCKY

CITY           SKY/WX    TMP DP  RH WIND       PRES   REMARKS
LOUISVILLE/SDF PTCLDY    72  59  63 W9        30.00R
LOUISVILLE/LOU CLEAR     73  59  61 W8        30.01R
FORT KNOX      CLEAR     68  60  77 W6        30.00R
$$

KYZ035>037-039>044-047>052-055>060-089>105-220200-
NORTHEAST KENTUCKY

CITY           SKY/WX    TMP DP  RH WIND       PRES   REMARKS
LEXINGTON      CLOUDY    67  64  90 S6        30.02R
COVINGTON      PTCLDY    71  67  87 SW5       29.98R
FRANKFORT      PTCLDY    69  65  86 S7        29.99R
$$

KYZ054-064>069-076>088-106>120-220200-
SOUTHEAST KENTUCKY

CITY           SKY/WX    TMP DP  RH WIND       PRES   REMARKS
JACKSON        CLOUDY    69  63  81 VRB3      30.06R
LONDON         CLOUDY    69  64  84 S5        30.06S
SOMERSET       CLOUDY    68  68 100 CALM      30.05R
MIDDLESBORO    MOCLDY    69  67  91 CALM      30.09S
MONTICELLO     NOT AVBL
$$





USA.gov is the U.S. government's official web portal to all federal, state and local government web resources and services.